Time,TemperatureF,DewpointF,PressureIn,WindDirection,WindDirectionDegrees,WindSpeedMPH,WindSpeedGustMPH,Humidity,HourlyPrecipIn,Conditions,Clouds,dailyrainin,SoftwareType,DateUTC
2013-08-02 00:12:00,79.0,76.1,29.87,SW,225,3.1,-999.0,91,-99.99,,,0.00,Acu-Link.com,2013-08-02 05:12:00,
2013-08-02 00:27:00,79.0,76.4,29.88,SW,225,2.7,-999.0,92,-99.99,,,0.00,Acu-Link.com,2013-08-02 05:27:00,
2013-08-02 00:43:00,79.0,76.4,29.88,NNW,337,3.1,-999.0,92,-99.99,,,0.00,Acu-Link.com,2013-08-02 05:43:00,
2013-08-02 00:58:00,79.0,76.4,29.88,NW,315,3.8,-999.0,92,-99.99,,,0.00,Acu-Link.com,2013-08-02 05:58:00,
2013-08-02 01:13:00,79.0,76.4,29.88,NW,315,2.7,-999.0,92,-99.99,,,0.00,Acu-Link.com,2013-08-02 06:13:00,
2013-08-02 01:29:00,78.8,76.3,29.87,WNW,292,1.6,-999.0,92,-99.99,,,0.00,Acu-Link.com,2013-08-02 06:29:00,
2013-08-02 01:44:00,78.4,75.9,29.87,South,180,1.6,-999.0,92,-99.99,,,0.00,Acu-Link.com,2013-08-02 06:44:00,
2013-08-02 01:59:00,77.7,75.5,29.87,West,270,2.2,-999.0,93,-99.99,,,0.00,Acu-Link.com,2013-08-02 06:59:00,
2013-08-02 02:14:00,77.4,75.5,29.86,South,180,2.2,-999.0,94,-99.99,,,0.00,Acu-Link.com,2013-08-02 07:14:00,
2013-08-02 02:29:00,76.8,75.0,29.86,WSW,247,0.0,-999.0,94,-99.99,,,0.00,Acu-Link.com,2013-08-02 07:29:00,
2013-08-02 02:45:00,76.6,75.1,29.85,West,270,0.0,-999.0,95,-99.99,,,0.00,Acu-Link.com,2013-08-02 07:45:00,
2013-08-02 03:00:00,76.5,74.9,29.86,South,180,0.0,-999.0,95,-99.99,,,0.00,Acu-Link.com,2013-08-02 08:00:00,
2013-08-02 03:15:00,76.3,74.7,29.87,South,180,0.0,-999.0,95,-99.99,,,0.00,Acu-Link.com,2013-08-02 08:15:00,
2013-08-02 03:30:00,75.9,74.7,29.86,WSW,247,0.0,-999.0,96,-99.99,,,0.00,Acu-Link.com,2013-08-02 08:30:00,
2013-08-02 03:46:00,75.9,74.7,29.87,West,270,0.0,-999.0,96,-99.99,,,0.00,Acu-Link.com,2013-08-02 08:46:00,
2013-08-02 04:01:00,75.9,75.0,29.87,SSE,157,0.0,-999.0,97,-99.99,,,0.00,Acu-Link.com,2013-08-02 09:01:00,
2013-08-02 04:16:00,75.6,74.6,29.87,NNW,337,1.6,-999.0,97,-99.99,,,0.00,Acu-Link.com,2013-08-02 09:16:00,
2013-08-02 04:31:00,75.6,74.6,29.87,South,180,0.0,-999.0,97,-99.99,,,0.00,Acu-Link.com,2013-08-02 09:31:00,
2013-08-02 04:47:00,75.0,74.1,29.87,West,270,0.0,-999.0,97,-99.99,,,0.00,Acu-Link.com,2013-08-02 09:47:00,
2013-08-02 05:02:00,74.5,73.6,29.87,SW,225,0.0,-999.0,97,-99.99,,,0.00,Acu-Link.com,2013-08-02 10:02:00,
2013-08-02 05:17:00,74.5,73.6,29.87,SSW,202,0.0,-999.0,97,-99.99,,,0.00,Acu-Link.com,2013-08-02 10:17:00,
2013-08-02 05:32:00,74.3,73.4,29.88,ESE,112,0.0,-999.0,97,-99.99,,,0.00,Acu-Link.com,2013-08-02 10:32:00,
2013-08-02 05:48:00,74.5,73.9,29.88,NW,315,0.0,-999.0,98,-99.99,,,0.00,Acu-Link.com,2013-08-02 10:48:00,
2013-08-02 06:03:00,74.3,73.7,29.90,SSE,157,0.0,-999.0,98,-99.99,,,0.00,Acu-Link.com,2013-08-02 11:03:00,
2013-08-02 06:18:00,73.9,73.3,29.90,NNE,22,0.0,-999.0,98,-99.99,,,0.00,Acu-Link.com,2013-08-02 11:18:00,
2013-08-02 06:33:00,73.9,73.3,29.91,NNE,22,0.0,-999.0,98,-99.99,,,0.00,Acu-Link.com,2013-08-02 11:33:00,
2013-08-02 06:49:00,74.1,73.5,29.90,SSW,202,0.0,-999.0,98,-99.99,,,0.00,Acu-Link.com,2013-08-02 11:49:00,
2013-08-02 07:04:00,74.8,74.5,29.90,WSW,247,2.2,-999.0,99,-99.99,,,0.00,Acu-Link.com,2013-08-02 12:04:00,
2013-08-02 07:19:00,76.1,75.8,29.89,West,270,2.7,-999.0,99,-99.99,,,0.00,Acu-Link.com,2013-08-02 12:19:00,
2013-08-02 07:35:00,76.6,76.0,29.90,SW,225,1.1,-999.0,98,-99.99,,,0.00,Acu-Link.com,2013-08-02 12:35:00,
2013-08-02 07:50:00,77.2,75.9,29.89,SW,225,1.1,-999.0,96,-99.99,,,0.00,Acu-Link.com,2013-08-02 12:50:00,
2013-08-02 08:05:00,78.1,76.5,29.90,West,270,2.7,-999.0,95,-99.99,,,0.00,Acu-Link.com,2013-08-02 13:05:00,
2013-08-02 08:20:00,79.3,77.1,29.90,SW,225,2.7,-999.0,93,-99.99,,,0.00,Acu-Link.com,2013-08-02 13:20:00,
2013-08-02 08:35:00,82.0,78.1,29.90,West,270,3.8,-999.0,88,-99.99,,,0.00,Acu-Link.com,2013-08-02 13:35:00,
2013-08-02 08:50:00,84.7,79.4,29.90,West,270,4.3,-999.0,84,-99.99,,,0.00,Acu-Link.com,2013-08-02 13:50:00,
2013-08-02 09:06:00,85.8,79.3,29.90,WNW,292,3.8,-999.0,81,-99.99,,,0.00,Acu-Link.com,2013-08-02 14:06:00,
2013-08-02 09:21:00,86.9,79.2,29.90,WNW,292,8.3,-999.0,78,-99.99,,,0.00,Acu-Link.com,2013-08-02 14:21:00,
2013-08-02 09:36:00,88.9,78.7,29.91,SSW,202,3.8,-999.0,72,-99.99,,,0.00,Acu-Link.com,2013-08-02 14:36:00,
2013-08-02 09:52:00,90.9,78.4,29.91,North,0,4.7,-999.0,67,-99.99,,,0.00,Acu-Link.com,2013-08-02 14:52:00,
2013-08-02 10:07:00,92.5,79.0,29.92,WNW,292,2.2,-999.0,65,-99.99,,,0.00,Acu-Link.com,2013-08-02 15:07:00,
2013-08-02 10:22:00,94.3,77.7,29.92,WSW,247,3.1,-999.0,59,-99.99,,,0.00,Acu-Link.com,2013-08-02 15:22:00,
2013-08-02 10:37:00,94.3,77.7,29.92,West,270,4.3,-999.0,59,-99.99,,,0.00,Acu-Link.com,2013-08-02 15:37:00,
2013-08-02 10:53:00,95.7,78.0,29.92,SSW,202,3.1,-999.0,57,-99.99,,,0.00,Acu-Link.com,2013-08-02 15:53:00,
2013-08-02 11:08:00,98.2,78.7,29.91,SW,225,3.1,-999.0,54,-99.99,,,0.00,Acu-Link.com,2013-08-02 16:08:00,
2013-08-02 11:23:00,98.6,78.5,29.91,WNW,292,7.4,-999.0,53,-99.99,,,0.00,Acu-Link.com,2013-08-02 16:23:00,
2013-08-02 11:38:00,99.5,78.1,29.91,SSW,202,4.7,-999.0,51,-99.99,,,0.00,Acu-Link.com,2013-08-02 16:38:00,
2013-08-02 11:53:00,97.2,77.7,29.91,West,270,1.6,-999.0,54,-99.99,,,0.00,Acu-Link.com,2013-08-02 16:53:00,
2013-08-02 12:09:00,97.3,79.0,29.90,WNW,292,3.8,-999.0,56,-99.99,,,0.00,Acu-Link.com,2013-08-02 17:09:00,
2013-08-02 12:24:00,97.2,78.2,29.90,NW,315,1.6,-999.0,55,-99.99,,,0.00,Acu-Link.com,2013-08-02 17:24:00,
2013-08-02 12:39:00,100.6,77.9,29.91,West,270,4.7,-999.0,49,-99.99,,,0.00,Acu-Link.com,2013-08-02 17:39:00,
2013-08-02 12:54:00,100.8,78.0,29.91,WNW,292,5.8,-999.0,49,-99.99,,,0.00,Acu-Link.com,2013-08-02 17:54:00,
2013-08-02 13:09:00,101.1,78.4,29.91,NW,315,5.1,-999.0,49,-99.99,,,0.00,Acu-Link.com,2013-08-02 18:09:00,
2013-08-02 13:25:00,99.9,79.0,29.90,NNE,22,4.7,-999.0,52,-99.99,,,0.00,Acu-Link.com,2013-08-02 18:25:00,
2013-08-02 13:40:00,102.4,76.2,29.90,NE,45,3.8,-999.0,44,-99.99,,,0.00,Acu-Link.com,2013-08-02 18:40:00,
2013-08-02 13:55:00,102.7,77.2,29.89,NNW,337,4.7,-999.0,45,-99.99,,,0.00,Acu-Link.com,2013-08-02 18:55:00,
2013-08-02 14:11:00,99.3,77.3,29.89,West,270,3.1,-999.0,50,-99.99,,,0.00,Acu-Link.com,2013-08-02 19:11:00,
2013-08-02 14:26:00,98.8,76.2,29.89,NW,315,6.3,-999.0,49,-99.99,,,0.00,Acu-Link.com,2013-08-02 19:26:00,
2013-08-02 14:41:00,101.1,77.7,29.88,WNW,292,4.7,-999.0,48,-99.99,,,0.00,Acu-Link.com,2013-08-02 19:41:00,
2013-08-02 14:56:00,103.5,75.8,29.87,West,270,2.7,-999.0,42,-99.99,,,0.00,Acu-Link.com,2013-08-02 19:56:00,
2013-08-02 15:12:00,105.3,75.9,29.87,West,270,2.2,-999.0,40,-99.99,,,0.00,Acu-Link.com,2013-08-02 20:12:00,
2013-08-02 15:27:00,107.4,75.5,29.86,NE,45,2.7,-999.0,37,-99.99,,,0.00,Acu-Link.com,2013-08-02 20:27:00,
2013-08-02 15:42:00,106.7,76.5,29.86,WSW,247,1.6,-999.0,39,-99.99,,,0.00,Acu-Link.com,2013-08-02 20:42:00,
2013-08-02 15:57:00,106.9,71.6,29.85,North,0,2.2,-999.0,33,-99.99,,,0.00,Acu-Link.com,2013-08-02 20:57:00,
2013-08-02 16:12:00,104.5,75.3,29.85,SSW,202,4.3,-999.0,40,-99.99,,,0.00,Acu-Link.com,2013-08-02 21:12:00,